Погода в Янгикенте

Россия / Республика Дагестан     42°12′21″N   47°49′46″E
темп.,
°C
ветер,
м/с
пор.,
м/с
влажн.,
%
обл.,
%
осадки,
мм/ч
давл.,
гПа
погр.,
м
8 мая, сб
сб800:00+10зсз11874 0.0 101910
03:00+10зюз22853 0.0 101912
06:00+13юз11720 0.0 101953
09:00+17вюв33640 0.0 1018675
12:00+19в445525 0.0 10161199
15:00+18в445975 0.0 10151024
18:00+15юв237310 0.0 1015262
21:00+12юз118690 0.0 101511
9 мая, вс
вс900:00+13зюз22770 0.0 101213
03:00+13зюз225099 0.0 101016
06:00+15юз224627 0.0 100930
09:00+19всв214829 0.0 1007419
12:00+20в325410 0.0 1006528
15:00+21всв325679 0.0 1005660
18:00+16ссв2482100 0.0 1007293
21:00+12всв2299100 0.7 1011241
10 мая, пн
пн1000:00+11всв2298100 3.1 1012186
03:00+7в2397100 6.1 1014286
06:00+5юв1398100 11.0 1019267
09:00+4сз1293100 22.6 1021369
12:00+5юв119199 6.3 1022519
15:00+7вюв218292 6.5 1021637
18:00+6зсз118470 0.2 1021386
21:00+5зюз228955 0.2 102239
11 мая, вт
вт1100:00+4зюз338213 0.0 102238
03:00+4зюз32745 0.0 102127
06:00+6зюз22685 0.0 102153
09:00+10вюв345312 0.0 10191240
12:00+13в445257 0.0 10171397
15:00+10в336686 0.0 1018928
18:00+9в227423 0.0 1019338
21:00+6зюз21870 0.0 102012
12 мая, ср
ср1200:00+6зюз11860 0.0 101910
03:00+5юз11880 0.0 101910
06:00+8ююв11780 0.0 1019103
09:00+13в22660 0.0 1017642
12:00+16в42601 0.0 1016816
15:00+15в32651 0.0 1016639
18:00+12в21810 0.0 1016175
21:00+10з11900 0.0 101710